User: anonymous   Login
Location: Fisheating Creek Campgrounds
(26.9333°N, 81.3167°W)
Time: 21:22:35
(UTC-04:00)
Language:

Cosmos 2221 Rocket - Orbit

View from above orbital plane
View from above orbital plane
View from above satellite
View from above satellite

Ground track
Ground track

The orbit data is extracted from the following two-line orbital elements,

1 22237U 92080B   15215.90126884  .00000167  00000-0  19978-4 0  9999
2 22237 082.5106 033.2743 0018277 280.5101 191.0351 14.78163871222499
Epoch (UTC): 03 August 2015 21:37:49
Eccentricity: 0.0018277
inclination: 82.5106°
perigee height: 622 km
apogee height: 648 km
right ascension of ascending node: 33.2743°
argument of perigee: 280.5101°
revolutions per day: 14.78163871
mean anomaly at epoch: 191.0351°
orbit number at epoch: 22249

The dashed part of the orbit path shows where the satellite is in the earth's shadow,  

DLR